TimeEDT,TemperatureF,Dew PointF,Humidity,Sea Level PressureIn,VisibilityMPH,Wind Direction,Wind SpeedMPH,Gust SpeedMPH,PrecipitationIn,Events,Conditions,WindDirDegrees,DateUTC
12:54 AM,32.0,18.0,56,29.81,10.0,West,4.6,-,N/A,,Partly Cloudy,270,2013-03-21 04:54:00
1:54 AM,32.0,18.0,56,29.83,10.0,WSW,5.8,-,N/A,,Clear,250,2013-03-21 05:54:00
2:54 AM,30.0,18.0,61,29.82,10.0,SW,8.1,-,N/A,,Scattered Clouds,230,2013-03-21 06:54:00
3:54 AM,32.0,16.0,52,29.80,10.0,WNW,10.4,-,N/A,,Mostly Cloudy,290,2013-03-21 07:54:00
4:54 AM,30.9,17.1,57,29.79,10.0,WNW,8.1,-,N/A,,Overcast,290,2013-03-21 08:54:00
5:54 AM,30.9,17.1,57,29.79,10.0,NW,5.8,-,N/A,,Overcast,310,2013-03-21 09:54:00
6:54 AM,30.9,17.1,57,29.80,10.0,NW,8.1,-,N/A,,Overcast,320,2013-03-21 10:54:00
7:54 AM,30.9,18.0,59,29.79,10.0,NW,5.8,-,N/A,,Scattered Clouds,310,2013-03-21 11:54:00
8:54 AM,33.1,18.0,54,29.79,10.0,NW,6.9,-,N/A,,Scattered Clouds,320,2013-03-21 12:54:00
9:54 AM,33.1,15.1,48,29.78,10.0,Variable,4.6,-,N/A,,Scattered Clouds,0,2013-03-21 13:54:00
10:54 AM,33.1,14.0,46,29.77,10.0,Calm,Calm,-,N/A,,Overcast,0,2013-03-21 14:54:00
11:54 AM,33.1,16.0,50,29.75,10.0,ESE,3.5,-,N/A,,Overcast,120,2013-03-21 15:54:00
12:54 PM,34.0,18.0,52,29.72,10.0,NNW,9.2,-,0.00,,Overcast,340,2013-03-21 16:54:00
1:54 PM,33.1,21.9,64,29.70,10.0,Calm,Calm,-,0.00,,Overcast,0,2013-03-21 17:54:00
2:54 PM,33.1,23.0,66,29.66,7.0,NE,3.5,-,0.00,Snow,Light Snow,50,2013-03-21 18:54:00
3:54 PM,33.1,23.0,66,29.64,10.0,ESE,9.2,-,0.00,,Overcast,110,2013-03-21 19:54:00
4:54 PM,32.0,24.1,73,29.63,9.0,ESE,9.2,-,0.00,Snow,Light Snow,110,2013-03-21 20:54:00
5:51 PM,30.2,24.8,80,29.63,3.0,East,3.5,-,0.00,Snow,Light Snow,90,2013-03-21 21:51:00
5:54 PM,30.9,25.0,79,29.64,3.0,East,4.6,-,0.00,Snow,Light Snow,80,2013-03-21 21:54:00
6:24 PM,30.2,26.6,86,29.64,3.0,East,3.5,-,0.00,Snow,Light Snow,90,2013-03-21 22:24:00
6:32 PM,30.2,26.6,86,29.64,2.5,ENE,4.6,-,0.00,Snow,Light Snow,70,2013-03-21 22:32:00
6:54 PM,30.9,26.1,82,29.65,2.5,East,3.5,-,0.00,Snow,Light Snow,80,2013-03-21 22:54:00
7:25 PM,30.2,26.6,86,29.64,2.5,Calm,Calm,-,0.00,Snow,Light Snow,0,2013-03-21 23:25:00
7:37 PM,30.2,26.6,86,29.64,1.5,East,3.5,-,0.01,Snow,Light Snow,80,2013-03-21 23:37:00
7:54 PM,30.0,27.0,88,29.65,1.8,ESE,4.6,-,0.01,Snow,Light Snow,110,2013-03-21 23:54:00
8:15 PM,30.2,26.6,86,29.65,2.0,ESE,5.8,-,0.01,Snow,Light Snow,110,2013-03-22 00:15:00
8:20 PM,30.2,26.6,86,29.65,1.8,ESE,5.8,-,0.01,Snow,Light Snow,110,2013-03-22 00:20:00
8:37 PM,30.2,26.6,86,29.64,2.0,ESE,6.9,-,0.01,Snow,Light Snow,110,2013-03-22 00:37:00
8:50 PM,30.2,26.6,86,29.64,2.0,East,5.8,-,0.01,Snow,Light Snow,100,2013-03-22 00:50:00
8:54 PM,30.9,28.0,89,29.64,5.0,ESE,5.8,-,0.01,Snow,Light Snow,110,2013-03-22 00:54:00
9:49 PM,30.2,28.4,93,29.63,10.0,Calm,Calm,-,0.00,,Overcast,0,2013-03-22 01:49:00
9:54 PM,32.0,28.9,88,29.63,10.0,Calm,Calm,-,0.00,,Overcast,0,2013-03-22 01:54:00
10:06 PM,32.0,28.4,87,29.64,10.0,Calm,Calm,-,N/A,,Overcast,0,2013-03-22 02:06:00
10:54 PM,32.0,28.0,85,29.63,10.0,WNW,3.5,-,N/A,,Overcast,290,2013-03-22 02:54:00
11:08 PM,32.0,26.6,80,29.63,10.0,WNW,4.6,-,N/A,,Overcast,300,2013-03-22 03:08:00
11:16 PM,32.0,26.6,80,29.63,10.0,WNW,5.8,-,N/A,,Overcast,300,2013-03-22 03:16:00
11:54 PM,32.0,27.0,82,29.62,10.0,WNW,5.8,-,N/A,,Overcast,300,2013-03-22 03:54:00